Location: Oak Glen
(34.0495°N, 116.9470°E)
Time: 10:09:32
(UTC-08:00)

Vanguard 3 - Visible Passes

Search period start: 12 December 2017 00:00
Search period end: 22 December 2017 00:00
Orbit: 509 x 3263 km, 33.3° (Epoch: 11 December)

Date Brightness Start Highest point End Pass type
(mag) Time Alt. Az. Time Alt. Az. Time Alt. Az.
12 Dec 8.6 01:49:46 10° W 01:54:09 38° SSW 02:01:00 10° SE visible
12 Dec 10.3 04:02:50 10° WSW 04:06:48 15° SSW 04:11:54 10° S visible
13 Dec 9.6 02:48:26 10° WSW 02:52:36 21° SSW 02:58:29 10° SSE visible
14 Dec 8.9 01:34:56 10° W 01:38:48 29° SSW 01:44:24 10° SE visible
15 Dec 10.0 02:34:17 10° SW 02:37:13 14° SSW 02:40:51 10° S visible
20 Dec 11.3 14:42:33 10° S 14:51:07 19° SSE 14:57:22 10° ESE visible
21 Dec 11.6 13:30:36 10° S 13:35:55 13° SSE 13:40:29 10° SE visible
